[[{"header":{"parameterUnit":"m.s-1","parameterCategory":1,"la1":30.2991,"la2":30.254,"lo1":-89.0895,"lo2":-89.0444,"dy":0.0017,"dx":0.0017,"nx":28,"ny":28,"refTime":"2025-09-03T03:00:00:Z","depth":0,"parameterNumber":2,"parameterNumberName":"U-component_of_WINDS"},"data":[0,0,0,0,0,0,0,0,0,0,0,0,0,0,0,0,0,0,0,0,0,0,0,0,0,0,0,0,0,0,0,0,0,0,0,0,0,0,0,0,0,0,0,0,0,0,0,0,0,0,0,0,0,0,0,0,0,0,-2.1479,-2.1478,0,-2.1412,-2.1412,-2.1411,-2.1289,-2.1287,-2.1285,-2.1282,-2.1217,-2.1217,-2.1217,0,0,0,0,0,0,0,0,0,0,0,0,0,-2.1502,-2.1503,-2.1479,-2.1478,-2.1477,-2.1413,-2.1412,-2.1411,-2.129,-2.1287,-2.1284,-2.1281,-2.1217,-2.1217,-2.1218,0,0,0,0,0,0,0,0,0,0,0,0,0,-2.147,-2.1503,-2.1479,-2.1409,-2.1402,-2.1413,-2.1412,-2.1411,-2.129,-2.1287,-2.1283,-2.128,-2.1216,-2.1217,-2.1218,-2.1292,0,0,-2.122,-2.122,0,0,0,0,0,0,0,0,-2.1472,-2.1469,-2.142,-2.1414,-2.1406,-2.1355,-2.1396,-2.1371,-2.1291,-2.1333,-2.1282,-2.1278,-2.1266,-2.1262,-2.1258,-2.1289,-2.1286,-2.122,-2.122,-2.122,-2.122,0,0,0,0,0,0,0,-2.1474,-2.1471,-2.1452,-2.1419,-2.1411,-2.1382,-2.1373,-2.1391,-2.132,-2.1329,-2.132,-2.1314,-2.1261,-2.1257,-2.1255,-2.1285,-2.122,-2.122,-2.1221,-2.1221,-2.1375,-2.1379,0,0,0,0,0,0,-2.1487,-2.1474,-2.1455,-2.145,-2.1431,-2.1384,-2.1374,-2.1375,-2.1319,-2.1307,-2.1317,-2.1308,-2.1258,-2.1255,-2.1252,-2.1336,-2.122,-2.1221,-2.1221,-2.1371,-2.1376,-2.138,0,0,0,0,0,0,-2.1488,-2.1486,-2.1457,-2.146,-2.1454,-2.1387,-2.1389,-2.1376,-2.1371,-2.131,-2.1297,-2.1325,-2.1255,-2.1251,-2.1283,-2.1332,-2.1221,-2.1222,-2.1367,-2.1373,-2.1378,-2.1505,0,0,0,0,0,0,-2.1489,-2.1487,-2.1514,-2.1461,-2.1454,-2.1489,-2.1392,-2.1377,-2.1373,-2.1361,-2.1315,-2.1304,-2.1252,-2.1283,-2.1284,-2.1331,-2.1222,-2.1362,-2.137,-2.1376,-2.1496,-2.1514,-2.1529,0,0,0,0,0,-2.149,-2.1553,-2.1516,-2.1514,-2.1486,-2.1492,-2.1488,-2.1426,-2.1377,-2.1404,-2.1365,-2.1305,-2.1327,-2.1287,-2.1287,-2.1335,-2.1359,-2.1368,-2.1376,-2.1488,-2.151,-2.1529,0,0,0,0,0,0,-2.1613,-2.1544,-2.1503,-2.155,-2.1528,-2.1471,-2.1503,-2.1452,-2.1443,-2.1433,-2.1357,-2.1348,-2.139,-2.1365,-2.1323,-2.1405,-2.1334,-2.1342,-2.1419,-2.144,-2.1456,-2.1461,-2.1223,0,0,0,0,0,-2.1646,-2.1655,-2.1595,-2.1642,-2.1633,-2.1571,-2.1571,-2.1525,-2.1499,-2.1489,-2.1452,-2.143,-2.1431,-2.1434,-2.1432,-2.1492,-2.148,-2.1525,-2.1542,-2.1556,-2.1565,-2.1595,-2.1615,-2.1407,-2.1407,-2.1407,0,0,-2.1713,-2.1677,-2.1688,-2.1666,-2.1643,-2.1656,-2.1563,-2.158,-2.1589,-2.1492,-2.1519,-2.1492,-2.1462,-2.1508,-2.1527,-2.1489,-2.1619,-2.1567,-2.1578,-2.1579,-2.1606,-2.1626,-2.1643,-2.1413,-2.1412,-2.1411,0,0,-2.1843,-2.1816,-2.1853,-2.1832,-2.1799,-2.1757,-2.1766,-2.1717,-2.1695,-2.1722,-2.165,-2.1659,-2.1663,-2.1645,-2.1637,-2.1761,-2.1706,-2.1762,-2.185,-2.1881,-2.1897,-2.1911,-2.1956,-2.1973,-2.1771,-2.1771,-2.1772,0,-2.1931,-2.1946,-2.1879,-2.19,-2.1893,-2.1806,-2.1843,-2.1827,-2.1795,-2.1793,-2.1751,-2.1755,-2.1729,-2.177,-2.1801,-2.1796,-2.1805,-2.1767,-2.19,-2.1914,-2.1926,-2.1968,-2.1985,-2.1778,-2.1778,-2.1777,-2.1776,0,-2.2057,-2.2068,-2.2102,-2.2073,-2.207,-2.21,-2.2038,-2.2043,-2.1999,-2.1962,-2.1991,-2.1956,-2.1946,-2.1952,-2.1909,-2.1988,-2.1966,-2.1914,-2.184,-2.1954,-2.1992,-2.2008,-2.1789,-2.1786,-2.1784,-2.1782,0,0,-2.2261,-2.2195,-2.2209,-2.2195,-2.2152,-2.2161,-2.2187,-2.2176,-2.2183,-2.2164,-2.2185,-2.2191,-2.2143,-2.2133,-2.2087,-2.2114,-2.2216,-2.2058,-2.2056,-2.2089,-2.2302,-2.2342,-2.2362,-2.2179,-2.2182,-2.2184,-2.2304,0,-2.2382,-2.2422,-2.2362,-2.2416,-2.2427,-2.2345,-2.2367,-2.2344,-2.2311,-2.2316,-2.2278,-2.2284,-2.2219,-2.2213,-2.2236,-2.2199,-2.2257,-2.2189,-2.2198,-2.2199,-2.2209,-2.2381,-2.2423,-2.2539,-2.2319,-2.2321,-2.2323,0,-2.2527,-2.2516,-2.2571,-2.2525,-2.2528,-2.2549,-2.2536,-2.2541,-2.2513,-2.2487,-2.2477,-2.2423,-2.2446,-2.2375,-2.2407,-2.2362,-2.2362,-2.2345,-2.2348,-2.2346,-2.2269,-2.2385,-2.2574,-2.2592,-2.2346,-2.2344,-2.2343,0,-2.2672,-2.267,-2.2703,-2.2694,-2.2641,-2.2659,-2.2638,-2.2607,-2.2605,-2.2593,-2.2592,-2.2583,-2.2579,-2.2574,-2.2519,-2.2473,-2.2559,-2.2483,-2.2538,-2.254,-2.256,-2.256,-2.2752,-2.256,-2.256,-2.2559,-2.2559,0,-2.2813,-2.285,-2.2767,-2.2788,-2.2827,-2.2759,-2.28,-2.2771,-2.2745,-2.2759,-2.2687,-2.2702,-2.2628,-2.2635,-2.2593,-2.2626,-2.2625,-2.2605,-2.2593,-2.2611,-2.2614,-2.2611,-2.2602,-2.2564,-2.2563,-2.2562,-2.2561,0,-2.2981,-2.2927,-2.2957,-2.2906,-2.2894,-2.2925,-2.2881,-2.2899,-2.286,-2.2879,-2.288,-2.2821,-2.2825,-2.277,-2.2764,-2.2735,-2.2789,-2.2763,-2.2798,-2.279,-2.2849,-2.2845,-2.3046,-2.307,-2.2863,-2.2865,-2.2867,0,-2.3075,-2.3101,-2.3053,-2.3057,-2.3039,-2.3047,-2.3044,-2.2979,-2.2979,-2.2951,-2.2972,-2.2971,-2.2967,-2.2978,-2.2935,-2.2931,-2.2905,-2.2976,-2.2903,-2.2922,-2.2906,-2.2906,-2.2909,-2.2991,-2.2994,-2.2996,-2.2997,0,-2.3247,-2.3219,-2.3218,-2.3208,-2.3207,-2.3197,-2.3181,-2.3189,-2.3118,-2.3122,-2.3126,-2.3123,-2.3117,-2.3118,-2.3105,-2.3084,-2.303,-2.3021,-2.3033,-2.3052,-2.3072,-2.3063,-2.284,-2.3016,-2.3014,-2.3013,-2.3012,-2.3011,-2.3381,-2.3401,-2.337,-2.3372,-2.3353,-2.3341,-2.3355,-2.3319,-2.3321,-2.331,-2.3272,-2.3283,-2.3256,-2.3233,-2.3218,-2.3226,-2.3192,-2.321,-2.3214,-2.322,-2.3231,-2.3071,-2.3224,-2.3223,-2.3222,-2.3222,-2.3221,0,-2.355,-2.3526,-2.3528,-2.3509,-2.3511,-2.3459,-2.3439,-2.3445,-2.3455,-2.3434,-2.3431,-2.3437,-2.3437,-2.3394,-2.3389,-2.3404,-2.338,-2.3405,-2.3404,-2.34,-2.3262,-2.3252,-2.3426,-2.3426,-2.3426,-2.3426,-2.3426,-2.3426,-2.3638,-2.367,-2.3639,-2.3661,-2.3637,-2.3647,-2.364,-2.3629,-2.3612,-2.3621,-2.362,-2.3592,-2.3563,-2.3556,-2.3554,-2.3542,-2.3544,-2.3578,-2.3558,-2.343,-2.341,-2.3391,-2.3381,-2.3579,-2.3579,-2.3695,-2.3696,-2.3697]},{"header":{"parameterUnit":"m.s-1","parameterCategory":1,"la1":30.2991,"la2":30.254,"lo1":-89.0895,"lo2":-89.0444,"dy":0.0017,"dx":0.0017,"nx":28,"ny":28,"refTime":"2025-09-03T03:00:00:Z","depth":0,"parameterNumber":3,"parameterNumberName":"V-component_of_WINDS"},"data":[0,0,0,0,0,0,0,0,0,0,0,0,0,0,0,0,0,0,0,0,0,0,0,0,0,0,0,0,0,0,0,0,0,0,0,0,0,0,0,0,0,0,0,0,0,0,0,0,0,0,0,0,0,0,0,0,0,0,2.3053,2.3052,0,2.2999,2.2998,2.2998,2.2977,2.2977,2.2977,2.2977,2.2917,2.2915,2.2913,0,0,0,0,0,0,0,0,0,0,0,0,0,2.3134,2.3133,2.3053,2.3052,2.3052,2.2999,2.2998,2.2997,2.2977,2.2977,2.2977,2.2977,2.2917,2.2915,2.2913,0,0,0,0,0,0,0,0,0,0,0,0,0,2.3091,2.3132,2.3053,2.3035,2.3033,2.2999,2.2998,2.2997,2.2976,2.2977,2.2977,2.2977,2.2918,2.2915,2.2913,2.2891,0,0,2.2905,2.2903,0,0,0,0,0,0,0,0,2.3094,2.3088,2.3038,2.3036,2.3034,2.2995,2.3005,2.2962,2.2976,2.2998,2.2977,2.2977,2.2942,2.2937,2.2927,2.2889,2.2886,2.2904,2.2903,2.2902,2.2901,0,0,0,0,0,0,0,2.3097,2.309,2.3031,2.3038,2.3035,2.3028,2.3022,2.2996,2.2969,2.2996,2.2994,2.2988,2.2941,2.2929,2.2925,2.2885,2.2904,2.2902,2.29,2.2899,2.2827,2.2827,0,0,0,0,0,0,2.3103,2.3093,2.3033,2.303,2.3065,2.3027,2.302,2.3007,2.2969,2.2964,2.2988,2.2988,2.2934,2.2928,2.2923,2.2896,2.2902,2.2899,2.2898,2.2828,2.2827,2.2827,0,0,0,0,0,0,2.3105,2.3098,2.3035,2.3061,2.3052,2.3025,2.301,2.3006,2.2994,2.2964,2.2958,2.2982,2.2934,2.2926,2.29,2.2893,2.2898,2.2895,2.2828,2.2828,2.2827,2.2841,0,0,0,0,0,0,2.3107,2.3099,2.3091,2.3061,2.3051,2.3014,2.301,2.3004,2.299,2.2989,2.2956,2.2951,2.2933,2.2904,2.2897,2.289,2.2893,2.2829,2.2828,2.2827,2.2841,2.2841,2.2841,0,0,0,0,0,2.311,2.3096,2.3091,2.3084,2.3041,2.3014,2.3008,2.299,2.299,2.2981,2.2962,2.2952,2.2895,2.2901,2.2894,2.2885,2.2829,2.2828,2.2827,2.2841,2.2841,2.2841,0,0,0,0,0,0,2.3124,2.3092,2.3086,2.3062,2.3041,2.3011,2.2999,2.2991,2.2968,2.2968,2.2944,2.2937,2.2912,2.2896,2.2903,2.2863,2.2861,2.2859,2.2874,2.2874,2.2874,2.2878,2.2891,0,0,0,0,0,2.3125,2.3107,2.3079,2.306,2.305,2.3027,2.3014,2.3002,2.2979,2.297,2.2948,2.2925,2.2902,2.2887,2.2865,2.2839,2.2831,2.283,2.283,2.283,2.2828,2.2814,2.2812,2.2825,2.2825,2.2825,0,0,2.3125,2.3105,2.3095,2.3062,2.3045,2.3026,2.3019,2.2999,2.2984,2.2966,2.294,2.2924,2.2896,2.2871,2.2858,2.2856,2.2823,2.2829,2.283,2.2827,2.2813,2.2812,2.2811,2.2824,2.2824,2.2824,0,0,2.3116,2.3099,2.3082,2.3065,2.304,2.3025,2.3021,2.2992,2.2981,2.2955,2.2942,2.2923,2.2884,2.2865,2.2851,2.2836,2.2826,2.283,2.2829,2.2816,2.2815,2.2814,2.2808,2.2807,2.2828,2.2828,2.2828,0,2.3118,2.309,2.3074,2.3055,2.3041,2.3026,2.3008,2.2992,2.296,2.295,2.2949,2.2901,2.2881,2.2851,2.2848,2.2837,2.2831,2.2833,2.2817,2.2815,2.2814,2.2809,2.2807,2.2828,2.2828,2.2828,2.2828,0,2.3095,2.3076,2.3065,2.3037,2.3021,2.3003,2.2982,2.2969,2.2959,2.2943,2.2917,2.2894,2.2866,2.2858,2.2847,2.2827,2.2826,2.2821,2.2819,2.2814,2.2809,2.2806,2.2829,2.2829,2.2829,2.2829,0,0,2.3091,2.3056,2.3052,2.3039,2.3011,2.2995,2.2976,2.2951,2.294,2.2918,2.2901,2.287,2.2865,2.2849,2.2836,2.2824,2.2814,2.282,2.2819,2.282,2.279,2.2793,2.2791,2.2808,2.2807,2.2807,2.2792,0,2.3077,2.3044,2.3029,2.3002,2.2984,2.2971,2.2954,2.2934,2.292,2.2901,2.2885,2.2863,2.2859,2.2849,2.2837,2.2818,2.2808,2.2819,2.279,2.2789,2.2797,2.2789,2.2792,2.2779,2.279,2.279,2.2789,0,2.3056,2.3038,2.3009,2.2985,2.2976,2.2962,2.2938,2.2921,2.2899,2.2889,2.2872,2.286,2.2838,2.2839,2.2808,2.2816,2.2804,2.2793,2.2792,2.2788,2.2788,2.2783,2.2774,2.2772,2.2786,2.2786,2.2786,0,2.3056,2.3023,2.3002,2.2992,2.2963,2.2953,2.294,2.2918,2.2904,2.2883,2.2874,2.2851,2.2837,2.2819,2.28,2.2802,2.2772,2.277,2.2762,2.2763,2.2755,2.2756,2.2744,2.2749,2.2749,2.2749,2.2749,0,2.3042,2.3025,2.3002,2.2989,2.2969,2.2953,2.2933,2.2919,2.29,2.2883,2.287,2.2854,2.2832,2.2813,2.2798,2.2775,2.2769,2.276,2.2756,2.2761,2.2762,2.2751,2.2752,2.2748,2.2748,2.2748,2.2748,0,2.3037,2.3021,2.2998,2.2973,2.2966,2.2953,2.2931,2.2917,2.2903,2.2882,2.2876,2.2854,2.2831,2.2811,2.2781,2.2771,2.2747,2.2743,2.2755,2.2753,2.2746,2.2747,2.2726,2.2722,2.273,2.273,2.273,0,2.3029,2.3016,2.299,2.2979,2.2967,2.2949,2.2936,2.2919,2.2906,2.288,2.2869,2.2846,2.2827,2.2791,2.2771,2.2748,2.2742,2.2737,2.2738,2.2744,2.2742,2.2742,2.2741,2.2736,2.2736,2.2736,2.2736,0,2.3015,2.3009,2.2991,2.2971,2.2956,2.2939,2.2921,2.2913,2.2893,2.2878,2.2856,2.2841,2.2811,2.2788,2.2763,2.2749,2.2739,2.2736,2.2733,2.2737,2.2745,2.274,2.2755,2.2736,2.2736,2.2736,2.2736,2.2736,2.3008,2.2996,2.2977,2.2958,2.2944,2.2928,2.2914,2.29,2.2882,2.2857,2.2848,2.2826,2.2804,2.277,2.2755,2.2737,2.2735,2.273,2.2729,2.2728,2.2729,2.2749,2.2732,2.2732,2.2732,2.2732,2.2732,0,2.2993,2.2981,2.2964,2.2941,2.2926,2.2921,2.2901,2.2889,2.287,2.2852,2.2834,2.2808,2.2787,2.2766,2.2743,2.2732,2.2727,2.2726,2.2726,2.2723,2.2732,2.2737,2.2731,2.2731,2.2731,2.2731,2.2731,2.2731,2.2984,2.2964,2.2955,2.2928,2.2915,2.2894,2.2884,2.2869,2.2855,2.2828,2.2811,2.2798,2.2779,2.2754,2.2734,2.2728,2.272,2.2721,2.2714,2.2722,2.2722,2.2723,2.2727,2.2719,2.2719,2.2707,2.2706,2.2706]}]]